Find Qianfan Jigui 03-06

NORAD ID: 62243 Int'l Des: 2024-232 Owner: YUANX Country: CN Constellation: spacesail operational
LEOCIRCULARPOLAR

当前视图

正在加载3D地球...

关于 Qianfan Jigui 03-06

正在加载描述...

即将过境

Passes for default location (London). Set your location on the main map for personalized predictions.

高度历史

Loading altitude history...

两行轨道根数

1 62243U 24232G 26151.12822361 .00000375 00000-0 15516-3 0 9996
2 62243 89.0072 18.0812 0012672 248.1609 111.8236 14.24606125125486
Epoch: May 31, 2026 • Age: 10 hours

当前状态

高度 828.1 km
速度 7.44 km/s
星下点 55.58°N, 71.36°W
发射日期 Dec 5, 2024
运行时间 1.4 years
类型 internet

技术详情

分类 Payload
质量 267.00 kg
干质量 267.00 kg
总质量 267.00 kg
长度 0.30 m
直径 3.00 m
跨度 10.00 m
形状 Box+pan
制造商 SECM
平台类型 Qianfan
阶段状态 In Orbit
所有者/国家 YUANX/CN

Most Searched